Location: Newark
(36.0797°N, 3.9744°E)
Time: 12:33:31
(UTC+00:00)

Vanguard 2 Rocket - Pass Details

Date: 11 December 2019
Orbit: 554 x 3326 km, 32.9° (Epoch: 26 January)

Event Time Altitude Azimuth Distance (km) Brightness Sun altitude
Rises 14:38:10 0° 212° (SSW) 7,300 13.1 17.1°
Reaches altitude 10° 14:44:08 10° 204° (SSW) 6,184 12.7 16.3°
Maximum altitude 14:59:31 32° 150° (SSE) 3,886 10.4 14.0°
Drops below altitude 10° 15:10:31 10° 94° (E) 4,443 10.0 12.4°
Sets 15:13:54 0° 84° (E) 5,076 10.2 11.9°
